OneWeb SL0588

operational
NORAD ID: 55153 Int'l Des: 2023-004 Owner: ONEWEBN Country: UK Constellation: oneweb
LEOCIRCULARPOLARONEWEB_TYPE

Über OneWeb SL0588

Beschreibung wird geladen...

Live-Position

3D-Globus wird geladen...

Nächste Überflüge

Höhenverlauf

Altitude vs Time

uPlot chart will show altitude changes over time

Zweizeiliger Elementsatz

1 55153U 23004P 25258.13129028 .00000004 00000-0 -22540-4 0 9998
2 55153 87.9181 30.1101 0002096 107.1387 252.9975 13.18684605133441
Epoch: 15. Sept. 2025 • Age: 23 hours

Aktueller Status

Höhe 1193.6 km
Geschwindigkeit 7.26 km/s
Subsatellitenpunkt 37.34°N, 172.79°W
Startdatum 10. Jan. 2023
Alter 2.6 years
Typ internet

Technische Details

Klassifizierung Payload
Masse 148.00 kg
Trockenmasse 140.00 kg
Gesamtmasse 148.00 kg
Länge 1.30 m
Durchmesser 1.00 m
Spannweite 5.00 m
Form Trapezoid+2 pan
Hersteller ONEWUS
Bus-Typ ARROW
Phasenstatus In Orbit
Besitzer/Staat ONEWEBN/UK

Große Konstellationen

Loading constellations...